Weather observations for the past three days for
Milford Municipal Airport
Metric (Imperial)
Date Time (mdt) Wind (kph) Vis. (km) Weather Sky Cond. Temperature (ºC) Relative Humidity Wind Chill (°C) Heat Index (°C) Pressure Precipitation (cm)
Air Dwpt 6 hour altimeter (cm) sea level (mb) 1 hr 3 hr 6 hr
Max. Min.
03 19:52 S 33 G 54 16.09 Fair and Breezy CLR 21.7 -5 16% 75.74 1005.2
03 18:52 S 13 16.09 Fair CLR 24.4 -8.3 11% 24 75.74 1005.3
03 17:52 S 22 G 33 16.09 Fair CLR 25 -8.3 26.1 21.7 10% 24 75.79 1005.8
03 16:52 SW 28 G 48 16.09 Fair CLR 24.4 -8.3 11% 24 75.82 1006.4
03 15:52 S 20 G 39 16.09 Fair CLR 25.6 -8.3 10% 25 75.9 1006.8
03 14:52 SW 35 G 44 16.09 Fair and Breezy CLR 24.4 -8.3 11% 24 75.97 1007.7
03 13:52 S 20 16.09 A Few Clouds FEW120 23.9 -7.2 12% 24 76.05 1008.8
03 12:52 S 15 G 31 16.09 Fair CLR 23.3 -7.2 12% 76.12 1009.7
03 11:52 S 15 16.09 A Few Clouds FEW120 21.7 -10.6 22.8 3.3 10% 76.2 1011.1
03 10:52 S 17 16.09 Partly Cloudy SCT110 21.7 -8.9 12% 76.25 1011.6
03 09:52 S 7 16.09 Fair CLR 17.2 -6.7 19% 76.25 1011.6
03 08:52 S 15 16.09 Fair CLR 12.2 -7.8 24% 76.3 1013.0
03 07:52 S 7 16.09 Fair CLR 7.8 -8.9 30% 7 76.28 1012.8
03 06:52 S 9 16.09 Fair CLR 5 -8.3 38% 3 76.28 1012.9
03 05:52 Calm 16.09 Fair CLR 4.4 -9.4 11.7 4.4 36% 76.25 1012.8
03 04:52 SW 15 16.09 Fair CLR 5.6 -9.4 33% 3 76.28 1012.7
03 03:52 S 9 16.09 Fair CLR 7.8 -8.3 31% 6 76.28 1012.5
03 02:52 S 11 16.09 Fair CLR 9.4 -7.8 29% 8 76.3 1012.8
03 01:52 SW 7 16.09 Fair CLR 9.4 -11.7 21% 9 76.3 1012.8
03 00:52 SW 6 16.09 Fair CLR 11.7 -11.1 19% 76.33 1012.8
02 23:52 W 17 16.09 Fair CLR 11.7 -12.2 23.9 10.6 18% 76.3 1012.8
02 22:52 S 7 16.09 Fair CLR 11.1 -11.7 19% 76.28 1013.1
02 21:52 NW 9 16.09 Fair CLR 16.7 -11.7 13% 76.25 1012.2
02 14:52 Calm 16.09 Fair CLR 21.7 -11.1 10% 76.38 1014.5
02 13:52 Vrbl 9 16.09 Fair CLR 21.7 -11.1 10% 76.43 1015.1
02 12:52 Calm 16.09 Fair CLR 20 -11.1 11% 76.5 1016.5
02 11:52 Vrbl 9 G 28 16.09 Fair CLR 19.4 -11.7 19.4 0 11% 76.58 1017.1
02 10:52 Vrbl 6 16.09 Fair CLR 16.7 -7.2 19% 76.63 1018.0
02 09:52 S 7 16.09 Fair CLR 13.3 -7.2 24% 76.63 1019.0
02 08:52 S 11 16.09 Fair CLR 9.4 -6.7 32% 8 76.66 1019.4
02 07:52 S 9 16.09 Fair CLR 5 -8.3 38% 3 76.66 1019.0
02 06:52 S 9 16.09 Fair CLR 0 -8.3 54% -3 76.61 1019.1
02 04:52 S 9 16.09 Fair CLR 2.2 -10 40% -0 76.61 1018.4
02 03:52 W 17 16.09 Fair CLR 5 -8.9 36% 2 76.58 1017.9
02 02:52 SW 7 16.09 Fair CLR 3.9 -9.4 38% 2 76.61 1018.4
02 01:52 W 15 16.09 Fair CLR 6.1 -8.9 34% 3 76.61 1017.9
02 00:52 N 11 16.09 Fair CLR 5 -10 33% 3 76.58 1018.2
01 23:52 NW 15 16.09 Fair CLR 7.8 -9.4 19.4 6.1 29% 6 76.56 1017.5
01 22:52 NE 7 16.09 Fair CLR 8.9 -12.2 21% 8 76.53 1017.1
01 21:52 N 11 16.09 Fair CLR 8.9 -12.8 20% 7 76.48 1016.8
01 20:52 NW 13 16.09 Fair CLR 11.7 -12.2 18% 76.4 1015.7
01 19:52 N 19 16.09 Fair CLR 17.2 -11.1 13% 76.35 1014.9
01 18:52 N 20 16.09 Fair CLR 18.3 -10.6 13% 76.35 1015.7
01 17:52 N 26 G 43 16.09 Fair CLR 18.9 -11.1 20 15 12% 76.35 1015.5
01 16:52 N 26 G 37 16.09 Fair CLR 19.4 -10 13% 76.35 1015.7
01 15:52 N 31 G 43 16.09 Fair CLR 18.9 -10 13% 76.4 1015.5
01 14:52 N 20 G 44 16.09 Fair CLR 18.3 -10 14% 76.45 1016.3
01 13:52 N 17 G 37 16.09 A Few Clouds FEW090 17.8 -9.4 15% 76.45 1016.2
01 12:52 N 24 G 39 16.09 Partly Cloudy SCT085 16.1 -6.1 21% 76.48 1016.6
01 11:52 NE 30 G 39 16.09 Fair CLR 16.1 -5.6 16.1 -1.1 22% 76.53 1016.9
01 10:52 N 17 16.09 Fair CLR 14.4 -5 26% 76.53 1017.3
01 09:52 N 20 16.09 Fair CLR 12.2 -6.1 28% 76.5 1017.4
01 08:52 N 9 16.09 Fair CLR 8.9 -7.2 32% 8 76.5 1016.9
01 07:52 Calm 16.09 Fair CLR 5.6 -8.9 35% 76.48 1016.7
01 06:52 Calm 16.09 Fair CLR -1.1 -10.6 49% 76.4 1016.7
01 05:52 NW 6 16.09 Fair CLR -0.6 -10.6 8.3 -1.1 47% 76.38 1016.1
01 04:52 Calm 16.09 Fair CLR -0.6 -10.6 47% 76.38 1016.0
01 03:52 Calm 16.09 Fair CLR 3.3 -9.4 39% 76.35 1015.0
01 02:52 W 17 16.09 Fair CLR 3.9 -9.4 38% 0 76.35 1014.9
01 01:52 NW 15 16.09 Fair CLR 5.6 -8.9 35% 3 76.35 1014.9
01 00:52 N 13 16.09 Fair CLR 7.2 -8.3 33% 5 76.38 1014.8
30 23:52 NW 17 16.09 Fair CLR 7.8 -7.2 18.9 7.2 34% 5 76.33 1014.4
30 22:52 NW 11 16.09 Fair CLR 7.8 -7.2 34% 6 76.3 1014.2
30 21:52 N 9 16.09 Fair CLR 8.3 -7.2 33% 7 76.28 1014.0
30 20:52 N 15 16.09 Fair CLR 12.8 -6.1 26% 76.2 1012.6
Date Time (mdt) Wind (kph) Vis. (km) Weather Sky Cond. Air Dwpt Max. Min. Relative Humidity Wind Chill (°C) Heat Index (°C) altimeter (cm) sea level (mb) 1 hr 3 hr 6 hr
6 hour
Temperature (ºC) Pressure Precipitation (cm)